﻿_id,日時,平均風速(m/s),平均風向,最大瞬間風速(m/s),最大風速時風向,気温(℃),湿度(%),10分間移動積算雨量(mm),1時間移動積算雨量(mm),日雨量(mm),累計雨量(mm),日射(日積算)(MJ/m2),日照(日積算)(min),現地気圧(hPa),海面気圧(hPa)
1,2023-10-23T00:00:00,1,西北西,1.5,西北西,10.9,94.8,0,0,0.5,1.5,15.87,434,1011.2,1025.4
2,2023-10-23T00:01:00,0.9,西北西,1.5,西北西,10.8,94.5,0,0,0,1.5,0,0,1011.2,1025.4
3,2023-10-23T00:02:00,0.8,西北西,1.5,西北西,10.8,94.4,0,0,0,1.5,0,0,1011.2,1025.4
4,2023-10-23T00:03:00,0.7,北西,1.5,西北西,10.8,94.6,0,0,0,1.5,0,0,1011.3,1025.5
5,2023-10-23T00:04:00,0.7,北西,1.5,西北西,11,94.8,0,0,0,1.5,0,0,1011.3,1025.5
6,2023-10-23T00:05:00,0.6,北西,1.5,西北西,11,94.9,0,0,0,1.5,0,0,1011.3,1025.5
7,2023-10-23T00:06:00,0.5,北北西,1.4,西北西,10.9,94.8,0,0,0,1.5,0,0,1011.3,1025.5
8,2023-10-23T00:07:00,0.4,北北西,1.2,北西,10.8,94.6,0,0,0,1.5,0,0,1011.2,1025.4
9,2023-10-23T00:08:00,0.4,北北西,1.1,北西,10.9,94.7,0,0,0,1.5,0,0,1011.2,1025.4
10,2023-10-23T00:09:00,0.4,北北西,0.9,北西,10.9,95,0,0,0,1.5,0,0,1011.2,1025.4
11,2023-10-23T00:10:00,0.4,北北西,1.2,北西,10.7,94.5,0,0,0,1.5,0,0,1011.2,1025.4
12,2023-10-23T00:11:00,0.4,北北西,1.2,北西,10.8,94.5,0,0,0,1.5,0,0,1011.3,1025.5
13,2023-10-23T00:12:00,0.5,北北西,1.2,北西,10.7,94.4,0,0,0,1.5,0,0,1011.3,1025.5
14,2023-10-23T00:13:00,0.5,北西,1.2,北西,10.7,94.5,0,0,0,1.5,0,0,1011.2,1025.4
15,2023-10-23T00:14:00,0.5,北西,1.2,北西,10.8,94.6,0,0,0,1.5,0,0,1011.3,1025.5
16,2023-10-23T00:15:00,0.5,北西,1.2,北西,10.8,94.9,0,0,0,1.5,0,0,1011.3,1025.5
17,2023-10-23T00:16:00,0.5,西北西,1.2,北西,10.6,94.8,0,0,0,1.5,0,0,1011.3,1025.5
18,2023-10-23T00:17:00,0.5,西北西,1.2,北西,10.6,94.6,0,0,0,1.5,0,0,1011.3,1025.5
19,2023-10-23T00:18:00,0.5,西北西,1.2,北西,10.6,94.7,0,0,0,1.5,0,0,1011.3,1025.5
20,2023-10-23T00:19:00,0.5,西北西,1.2,北西,10.6,94.9,0,0,0,1.5,0,0,1011.3,1025.5
21,2023-10-23T00:20:00,0.4,西北西,1,西,10.6,95,0,0,0,1.5,0,0,1011.3,1025.5
22,2023-10-23T00:21:00,0.4,北西,1,西,10.7,95.1,0,0,0,1.5,0,0,1011.3,1025.5
23,2023-10-23T00:22:00,0.3,北西,0.8,西北西,10.6,95.1,0,0,0,1.5,0,0,1011.3,1025.5
24,2023-10-23T00:23:00,0.4,北西,0.8,西北西,10.7,95.3,0,0,0,1.5,0,0,1011.3,1025.5
25,2023-10-23T00:24:00,0.3,北西,0.7,北北東,10.7,95.3,0,0,0,1.5,0,0,1011.2,1025.4
26,2023-10-23T00:25:00,0.3,北北西,0.7,北北東,10.7,95.3,0,0,0,1.5,0,0,1011.2,1025.4
27,2023-10-23T00:26:00,0.3,北北西,0.7,北北東,10.7,95.3,0,0,0,1.5,0,0,1011.2,1025.4
28,2023-10-23T00:27:00,0.3,北北西,0.7,北北東,10.7,95.4,0,0,0,1.5,0,0,1011.2,1025.4
29,2023-10-23T00:28:00,0.3,北北西,0.7,北北東,10.7,95.4,0,0,0,1.5,0,0,1011.3,1025.5
30,2023-10-23T00:29:00,0.4,北北西,0.7,北北東,10.6,95.3,0,0,0,1.5,0,0,1011.3,1025.5
31,2023-10-23T00:30:00,0.3,北北西,0.7,北北東,10.6,95.2,0,0,0,1.5,0,0,1011.3,1025.5
32,2023-10-23T00:31:00,0.3,北北西,0.7,北北東,10.5,95.2,0,0,0,1.5,0,0,1011.3,1025.5
33,2023-10-23T00:32:00,0.3,北北西,0.7,北北東,10.5,95.1,0,0,0,1.5,0,0,1011.4,1025.6
34,2023-10-23T00:33:00,0.3,北西,0.7,西南西,10.5,95.2,0,0,0,1.5,0,0,1011.4,1025.6
35,2023-10-23T00:34:00,0.3,西北西,0.7,西南西,10.4,95.2,0,0,0,1.5,0,0,1011.4,1025.6
36,2023-10-23T00:35:00,0.2,静穏,0.7,西南西,10.4,95.2,0,0,0,1.5,0,0,1011.4,1025.6
37,2023-10-23T00:36:00,0.2,静穏,0.7,西南西,10.4,95.3,0,0,0,1.5,0,0,1011.4,1025.6
38,2023-10-23T00:37:00,0.2,静穏,0.7,西南西,10.5,95.5,0,0,0,1.5,0,0,1011.4,1025.6
39,2023-10-23T00:38:00,0.2,静穏,0.7,西南西,10.5,95.5,0,0,0,1.5,0,0,1011.4,1025.6
40,2023-10-23T00:39:00,0.1,静穏,0.7,西南西,10.6,95.6,0,0,0,1.5,0,0,1011.4,1025.6
41,2023-10-23T00:40:00,0.1,静穏,0.7,西南西,10.7,95.8,0,0,0,1.5,0,0,1011.3,1025.5
42,2023-10-23T00:41:00,0.1,静穏,0.6,南西,10.8,96,0,0,0,1.5,0,0,1011.3,1025.5
43,2023-10-23T00:42:00,0.1,静穏,0.6,南西,10.7,95.7,0,0,0,1.5,0,0,1011.2,1025.4
44,2023-10-23T00:43:00,0,静穏,0.3,北,10.7,95.8,0,0,0,1.5,0,0,1011.3,1025.5
45,2023-10-23T00:44:00,0,静穏,0.5,西北西,10.6,95.7,0,0,0,1.5,0,0,1011.3,1025.5
46,2023-10-23T00:45:00,0.1,静穏,0.5,西北西,10.6,95.6,0,0,0,1.5,0,0,1011.3,1025.5
47,2023-10-23T00:46:00,0.1,静穏,0.6,南西,10.6,95.7,0,0,0,1.5,0,0,1011.3,1025.5
48,2023-10-23T00:47:00,0.1,静穏,0.6,南西,10.8,95.8,0,0,0,1.5,0,0,1011.3,1025.5
49,2023-10-23T00:48:00,0.1,静穏,0.7,南南西,10.6,95.8,0,0,0,1.5,0,0,1011.3,1025.5
50,2023-10-23T00:49:00,0.2,静穏,0.8,南西,10.5,95.4,0,0,0,1.5,0,0,1011.3,1025.5
51,2023-10-23T00:50:00,0.2,静穏,1.1,南南西,10.5,95.4,0,0,0,1.5,0,0,1011.3,1025.5
52,2023-10-23T00:51:00,0.2,静穏,1.1,南南西,10.6,95.5,0,0,0,1.5,0,0,1011.3,1025.5
53,2023-10-23T00:52:00,0.3,南南西,1.1,南南西,10.8,95.8,0,0,0,1.5,0,0,1011.3,1025.5
54,2023-10-23T00:53:00,0.3,南南西,1.1,南南西,10.7,95.7,0,0,0,1.5,0,0,1011.3,1025.5
55,2023-10-23T00:54:00,0.2,静穏,1.1,南南西,10.7,95.7,0,0,0,1.5,0,0,1011.3,1025.5
56,2023-10-23T00:55:00,0.2,静穏,1.1,南南西,10.6,95.5,0,0,0,1.5,0,0,1011.3,1025.5
57,2023-10-23T00:56:00,0.2,静穏,1.1,南南西,10.4,95.4,0,0,0,1.5,0,0,1011.3,1025.5
58,2023-10-23T00:57:00,0.2,静穏,1.1,南南西,10.4,95.2,0,0,0,1.5,0,0,1011.3,1025.5
59,2023-10-23T00:58:00,0.2,静穏,1.1,南南西,10.3,95.3,0,0,0,1.5,0,0,1011.3,1025.5
60,2023-10-23T00:59:00,0.2,静穏,1.1,南南西,10.4,95.3,0,0,0,1.5,0,0,1011.2,1025.4
61,2023-10-23T01:00:00,0.1,静穏,0.7,南西,10.3,95.4,0,0,0,1.5,0,0,1011.2,1025.4
62,2023-10-23T01:01:00,0.1,静穏,0.6,北西,10.4,95.4,0,0,0,1.5,0,0,1011.2,1025.4
63,2023-10-23T01:02:00,0.1,静穏,0.6,北西,10.4,95.5,0,0,0,1.5,0,0,1011.3,1025.5
64,2023-10-23T01:03:00,0.1,静穏,0.6,北西,10.3,95.5,0,0,0,1.5,0,0,1011.3,1025.5
65,2023-10-23T01:04:00,0.2,静穏,0.8,西,10.4,95.4,0,0,0,1.5,0,0,1011.3,1025.5
66,2023-10-23T01:05:00,0.2,静穏,0.9,西南西,10.4,95.5,0,0,0,1.5,0,0,1011.3,1025.5
67,2023-10-23T01:06:00,0.3,北西,0.9,西南西,10.3,95.6,0,0,0,1.5,0,0,1011.3,1025.5
68,2023-10-23T01:07:00,0.4,北西,1,西,10.2,95.4,0,0,0,1.5,0,0,1011.3,1025.5
69,2023-10-23T01:08:00,0.5,北西,1,西,10.3,95.5,0,0,0,1.5,0,0,1011.2,1025.4
70,2023-10-23T01:09:00,0.5,西北西,1,西,10.3,95.5,0,0,0,1.5,0,0,1011.3,1025.5
71,2023-10-23T01:10:00,0.6,西北西,1,西,10.3,95.5,0,0,0,1.5,0,0,1011.2,1025.4
72,2023-10-23T01:11:00,0.6,西,1,西,10.3,95.5,0,0,0,1.5,0,0,1011.2,1025.4
73,2023-10-23T01:12:00,0.7,西,1,西,10.3,95.6,0,0,0,1.5,0,0,1011.2,1025.4
74,2023-10-23T01:13:00,0.7,西,1,西,10.2,95.5,0,0,0,1.5,0,0,1011.2,1025.4
75,2023-10-23T01:14:00,0.7,西,1,西,10.3,95.4,0,0,0,1.5,0,0,1011.2,1025.4
76,2023-10-23T01:15:00,0.6,西,1,西,10.4,95.6,0,0,0,1.5,0,0,1011.2,1025.4
77,2023-10-23T01:16:00,0.6,西,1,西,10.2,95.5,0,0,0,1.5,0,0,1011.2,1025.4
78,2023-10-23T01:17:00,0.5,西北西,1,西,10.2,95.5,0,0,0,1.5,0,0,1011.1,1025.3
79,2023-10-23T01:18:00,0.4,西北西,1,西,10.3,95.5,0,0,0,1.5,0,0,1011.1,1025.3
80,2023-10-23T01:19:00,0.3,北西,1,西,10.2,95.5,0,0,0,1.5,0,0,1011.2,1025.4
81,2023-10-23T01:20:00,0.3,北西,0.9,西南西,10.1,95.4,0,0,0,1.5,0,0,1011.2,1025.4
82,2023-10-23T01:21:00,0.2,静穏,0.8,西,10.2,95.4,0,0,0,1.5,0,0,1011.2,1025.4
83,2023-10-23T01:22:00,0.1,静穏,0.7,西,10.2,95.5,0,0,0,1.5,0,0,1011.2,1025.4
84,2023-10-23T01:23:00,,"",,"",,,,,,,,,,
85,2023-10-23T01:24:00,0.1,静穏,0.5,北北東,10.2,95.5,0,0,0,1.5,0,0,1011.2,1025.4
86,2023-10-23T01:25:00,0.1,静穏,0.5,北北東,10.1,95.5,0,0,0,1.5,0,0,1011.2,1025.4
87,2023-10-23T01:26:00,0.1,静穏,0.6,西北西,10.1,95.5,0,0,0,1.5,0,0,1011.2,1025.4
88,2023-10-23T01:27:00,0.1,静穏,0.6,西北西,10,95.4,0,0,0,1.5,0,0,1011.2,1025.4
89,2023-10-23T01:28:00,0.2,静穏,0.6,西北西,10.1,95.4,0,0,0,1.5,0,0,1011.2,1025.4
90,2023-10-23T01:29:00,0.2,静穏,0.8,北西,10.1,95.5,0,0,0,1.5,0,0,1011.2,1025.4
91,2023-10-23T01:30:00,0.3,北北西,0.8,北西,10.1,95.6,0,0,0,1.5,0,0,1011.2,1025.4
92,2023-10-23T01:31:00,0.3,北西,0.8,北西,10.1,95.5,0,0,0,1.5,0,0,1011.2,1025.4
93,2023-10-23T01:32:00,0.4,北西,0.8,北西,9.7,95.1,0,0,0,1.5,0,0,1011.2,1025.4
94,2023-10-23T01:33:00,0.4,西北西,0.8,北西,9.8,95.1,0,0,0,1.5,0,0,1011.3,1025.5
95,2023-10-23T01:34:00,0.4,西北西,0.8,北西,10.1,95.5,0,0,0,1.5,0,0,1011.2,1025.4
96,2023-10-23T01:35:00,0.4,西,0.8,北西,10.2,95.7,0,0,0,1.5,0,0,1011.2,1025.4
97,2023-10-23T01:36:00,0.4,西北西,0.8,北西,10.2,95.8,0,0,0,1.5,0,0,1011.2,1025.4
98,2023-10-23T01:37:00,0.3,西,0.8,北西,10.2,95.7,0,0,0,1.5,0,0,1011.2,1025.4
99,2023-10-23T01:38:00,0.4,西,0.8,北西,10.2,95.7,0,0,0,1.5,0,0,1011.3,1025.5
100,2023-10-23T01:39:00,0.4,西,0.8,西北西,10.1,95.5,0,0,0,1.5,0,0,1011.2,1025.4
101,2023-10-23T01:40:00,0.3,西南西,0.8,西北西,10,95.5,0,0,0,1.5,0,0,1011.2,1025.4
102,2023-10-23T01:41:00,0.4,西,1,西,9.9,95.4,0,0,0,1.5,0,0,1011.2,1025.4
103,2023-10-23T01:42:00,0.4,西,1,西,9.8,95.3,0,0,0,1.5,0,0,1011.2,1025.4
104,2023-10-23T01:43:00,0.5,西,1.4,西北西,9.8,95.3,0,0,0,1.5,0,0,1011.1,1025.3
105,2023-10-23T01:44:00,0.5,西,1.4,西北西,9.9,95.4,0,0,0,1.5,0,0,1011.2,1025.4
106,2023-10-23T01:45:00,0.6,西北西,1.4,西北西,9.9,95.6,0,0,0,1.5,0,0,1011.1,1025.3
107,2023-10-23T01:46:00,0.7,西,1.4,西北西,9.9,95.5,0,0,0,1.5,0,0,1011.1,1025.3
108,2023-10-23T01:47:00,0.8,西,1.4,西北西,9.9,95.5,0,0,0,1.5,0,0,1011.1,1025.3
109,2023-10-23T01:48:00,0.8,西,1.4,西北西,9.8,95.5,0,0,0,1.5,0,0,1011.1,1025.3
110,2023-10-23T01:49:00,0.8,西,1.4,西北西,9.9,95.6,0,0,0,1.5,0,0,1011.1,1025.3
111,2023-10-23T01:50:00,0.9,西北西,1.4,西北西,9.8,95.7,0,0,0,1.5,0,0,1011.1,1025.3
112,2023-10-23T01:51:00,0.9,西北西,1.4,西北西,9.9,95.6,0,0,0,1.5,0,0,1011.1,1025.3
113,2023-10-23T01:52:00,0.8,西北西,1.4,西北西,10,95.7,0,0,0,1.5,0,0,1011,1025.2
114,2023-10-23T01:53:00,0.8,西北西,1.2,西,10,95.7,0,0,0,1.5,0,0,1011.1,1025.3
115,2023-10-23T01:54:00,0.7,西北西,1.2,西,9.9,95.7,0,0,0,1.5,0,0,1011.1,1025.3
116,2023-10-23T01:55:00,0.7,北西,1.2,西,9.8,95.5,0,0,0,1.5,0,0,1011.1,1025.3
117,2023-10-23T01:56:00,0.6,北西,1.2,西,9.7,95.4,0,0,0,1.5,0,0,1011,1025.2
118,2023-10-23T01:57:00,0.5,北西,1,北,9.7,95.4,0,0,0,1.5,0,0,1011,1025.2
119,2023-10-23T01:58:00,0.4,北北西,1,北,9.8,95.5,0,0,0,1.5,0,0,1011,1025.2
120,2023-10-23T01:59:00,0.4,北北西,1,北,9.7,95.4,0,0,0,1.5,0,0,1011,1025.2
121,2023-10-23T02:00:00,0.3,北北西,1,北,9.8,95.5,0,0,0,1.5,0,0,1011.1,1025.3
122,2023-10-23T02:01:00,0.3,北北西,1,北,9.8,95.6,0,0,0,1.5,0,0,1011.1,1025.3
123,2023-10-23T02:02:00,0.2,静穏,1,北,9.7,95.4,0,0,0,1.5,0,0,1011.1,1025.3
124,2023-10-23T02:03:00,0.2,静穏,1,北,9.7,95.5,0,0,0,1.5,0,0,1011.1,1025.3
125,2023-10-23T02:04:00,0.2,静穏,1,北,9.7,95.5,0,0,0,1.5,0,0,1011.1,1025.3
126,2023-10-23T02:05:00,0.2,静穏,0.8,西,9.7,95.5,0,0,0,1.5,0,0,1011.1,1025.3
127,2023-10-23T02:06:00,0.2,静穏,0.8,西,9.8,95.6,0,0,0,1.5,0,0,1011.1,1025.3
128,2023-10-23T02:07:00,0.2,静穏,0.8,西,9.8,95.6,0,0,0,1.5,0,0,1011.1,1025.3
129,2023-10-23T02:08:00,0.1,静穏,0.8,西,10,95.8,0,0,0,1.5,0,0,1011,1025.2
130,2023-10-23T02:09:00,0.2,静穏,0.8,西,9.9,95.9,0,0,0,1.5,0,0,1011,1025.2
131,2023-10-23T02:10:00,0.1,静穏,0.8,西,10,95.8,0,0,0,1.5,0,0,1011,1025.2
132,2023-10-23T02:11:00,0.1,静穏,0.8,西,9.9,95.9,0,0,0,1.5,0,0,1011.1,1025.3
133,2023-10-23T02:12:00,0.1,静穏,0.8,西,9.7,95.7,0,0,0,1.5,0,0,1011,1025.2
134,2023-10-23T02:13:00,0.1,静穏,0.5,西北西,9.7,95.6,0,0,0,1.5,0,0,1010.9,1025.1
135,2023-10-23T02:14:00,0.1,静穏,0.6,南東,9.7,95.6,0,0,0,1.5,0,0,1011,1025.2
136,2023-10-23T02:15:00,0.1,静穏,0.6,南東,9.7,95.7,0,0,0,1.5,0,0,1010.9,1025.1
137,2023-10-23T02:16:00,0.1,静穏,0.6,南東,9.7,95.7,0,0,0,1.5,0,0,1011,1025.2
138,2023-10-23T02:17:00,0.1,静穏,0.6,南東,9.8,95.9,0,0,0,1.5,0,0,1011,1025.2
139,2023-10-23T02:18:00,0.2,静穏,0.6,南東,9.8,96,0,0,0,1.5,0,0,1011,1025.2
140,2023-10-23T02:19:00,0.2,静穏,0.6,南東,9.7,95.8,0,0,0,1.5,0,0,1010.9,1025.1
141,2023-10-23T02:20:00,0.2,静穏,0.6,南東,9.8,96,0,0,0,1.5,0,0,1010.9,1025.1
142,2023-10-23T02:21:00,0.2,静穏,0.6,南東,9.7,96,0,0,0,1.5,0,0,1010.9,1025.1
143,2023-10-23T02:22:00,0.2,静穏,0.7,北北東,9.7,96,0,0,0,1.5,0,0,1011,1025.2
144,2023-10-23T02:23:00,0.3,東北東,1,北北東,9.7,96.1,0,0,0,1.5,0,0,1011,1025.2
145,2023-10-23T02:24:00,0.3,東北東,1,北北東,9.8,96.2,0,0,0,1.5,0,0,1011,1025.2
146,2023-10-23T02:25:00,0.3,北東,1,北北東,9.8,96.2,0,0,0,1.5,0,0,1011,1025.2
147,2023-10-23T02:26:00,0.3,北東,1,北北東,9.9,96.2,0,0,0,1.5,0,0,1011,1025.2
148,2023-10-23T02:27:00,0.3,北東,1,北北東,9.8,96.2,0,0,0,1.5,0,0,1011,1025.2
149,2023-10-23T02:28:00,0.3,北北東,1,北北東,9.6,96,0,0,0,1.5,0,0,1011,1025.2
150,2023-10-23T02:29:00,0.3,北北東,1,北北東,9.7,96,0,0,0,1.5,0,0,1011,1025.2
151,2023-10-23T02:30:00,0.3,北,1,北北東,9.8,96.2,0,0,0,1.5,0,0,1011,1025.2
152,2023-10-23T02:31:00,0.3,北,1,北北東,9.6,96.2,0,0,0,1.5,0,0,1011,1025.2
153,2023-10-23T02:32:00,0.3,北,1,北北東,9.6,96.1,0,0,0,1.5,0,0,1011,1025.2
154,2023-10-23T02:33:00,0.3,北,1,北北東,9.7,96.1,0,0,0,1.5,0,0,1011,1025.2
155,2023-10-23T02:34:00,0.2,静穏,1,北北東,9.5,96.2,0,0,0,1.5,0,0,1011,1025.2
156,2023-10-23T02:35:00,0.2,静穏,0.7,北東,9.7,96.2,0,0,0,1.5,0,0,1011,1025.2
157,2023-10-23T02:36:00,0.2,静穏,0.7,北東,9.5,96.2,0,0,0,1.5,0,0,1011,1025.2
158,2023-10-23T02:37:00,0.2,静穏,0.7,北東,9.6,96.2,0,0,0,1.5,0,0,1011,1025.2
159,2023-10-23T02:38:00,0.2,静穏,0.7,北東,9.7,96.3,0,0,0,1.5,0,0,1011,1025.2
160,2023-10-23T02:39:00,0.2,静穏,0.7,北東,9.6,96.2,0,0,0,1.5,0,0,1011,1025.2
161,2023-10-23T02:40:00,0.3,北,0.7,北東,9.7,96.2,0,0,0,1.5,0,0,1011,1025.2
162,2023-10-23T02:41:00,0.3,北,0.7,北東,9.6,96.2,0,0,0,1.5,0,0,1011,1025.2
163,2023-10-23T02:42:00,0.3,北,0.7,北東,9.6,96.1,0,0,0,1.5,0,0,1011,1025.2
164,2023-10-23T02:43:00,0.3,北北西,0.6,西北西,9.5,96.1,0,0,0,1.5,0,0,1011,1025.2
165,2023-10-23T02:44:00,0.3,北北西,0.6,西北西,9.5,95.9,0,0,0,1.5,0,0,1010.9,1025.1
166,2023-10-23T02:45:00,0.3,北西,0.6,西北西,9.5,96,0,0,0,1.5,0,0,1011,1025.2
167,2023-10-23T02:46:00,0.3,北西,0.6,西北西,9.6,96.1,0,0,0,1.5,0,0,1010.9,1025.1
168,2023-10-23T02:47:00,0.3,北西,0.6,西北西,9.7,96.2,0,0,0,1.5,0,0,1011,1025.2
169,2023-10-23T02:48:00,0.3,北西,0.6,西北西,9.6,96.2,0,0,0,1.5,0,0,1010.9,1025.1
170,2023-10-23T02:49:00,0.3,北西,0.6,西北西,9.7,96.1,0,0,0,1.5,0,0,1011,1025.2
171,2023-10-23T02:50:00,0.3,北西,0.8,北西,9.7,96.2,0,0,0,1.5,0,0,1011,1025.2
172,2023-10-23T02:51:00,0.3,北西,0.8,北西,9.6,96.1,0,0,0,1.5,0,0,1011,1025.2
173,2023-10-23T02:52:00,0.3,北西,1.2,北北東,9.6,96.1,0,0,0,1.5,0,0,1011,1025.2
174,2023-10-23T02:53:00,0.4,北北西,1.8,北北東,9.6,96.1,0,0,0,1.5,0,0,1010.9,1025.1
175,2023-10-23T02:54:00,0.5,北北西,1.8,北北東,9.6,96,0,0,0,1.5,0,0,1010.9,1025.1
176,2023-10-23T02:55:00,0.6,北,1.8,北北東,9.6,96,0,0,0,1.5,0,0,1010.9,1025.1
177,2023-10-23T02:56:00,0.7,北,1.8,北北東,9.6,96.1,0,0,0,1.5,0,0,1010.9,1025.1
178,2023-10-23T02:57:00,0.8,北,1.8,北北東,9.7,96.1,0,0,0,1.5,0,0,1010.9,1025.1
179,2023-10-23T02:58:00,0.9,北,1.8,北北東,9.7,96.1,0,0,0,1.5,0,0,1010.9,1025.1
180,2023-10-23T02:59:00,1,北北東,2,北東,9.8,96.2,0,0,0,1.5,0,0,1010.9,1025.1
181,2023-10-23T03:00:00,1,北北東,2,北東,9.7,96.1,0,0,0,1.5,0,0,1011,1025.2
182,2023-10-23T03:01:00,1,北北東,2,北東,9.8,96.1,0,0,0,1.5,0,0,1011,1025.2
183,2023-10-23T03:02:00,1.1,北北東,2,北東,9.9,96.2,0,0,0,1.5,0,0,1011,1025.2
184,2023-10-23T03:03:00,1,北,2,北東,9.7,96.1,0,0,0,1.5,0,0,1011,1025.2
185,2023-10-23T03:04:00,0.9,北,2,北東,9.6,95.9,0,0,0,1.5,0,0,1010.9,1025.1
186,2023-10-23T03:05:00,0.8,北,2,北東,9.4,95.6,0,0,0,1.5,0,0,1010.9,1025.1
187,2023-10-23T03:06:00,0.7,北,2,北東,9.4,95.6,0,0,0,1.5,0,0,1011,1025.2
188,2023-10-23T03:07:00,0.6,北,2,北東,9.5,95.7,0,0,0,1.5,0,0,1010.9,1025.1
189,2023-10-23T03:08:00,0.5,北,2,北東,9.5,95.8,0,0,0,1.5,0,0,1010.9,1025.1
190,2023-10-23T03:09:00,0.4,北北西,1.4,北北東,9.5,95.8,0,0,0,1.5,0,0,1010.9,1025.1
191,2023-10-23T03:10:00,0.4,北北西,1,北北東,9.5,95.9,0,0,0,1.5,0,0,1010.9,1025.1
192,2023-10-23T03:11:00,0.4,北北西,0.9,北西,9.5,95.9,0,0,0,1.5,0,0,1011,1025.2
193,2023-10-23T03:12:00,0.4,北北西,0.9,北西,9.5,95.9,0,0,0,1.5,0,0,1011,1025.2
194,2023-10-23T03:13:00,0.3,北北西,0.9,北西,9.7,96.1,0,0,0,1.5,0,0,1011,1025.2
195,2023-10-23T03:14:00,0.3,北北西,0.9,北西,9.5,96.1,0,0,0,1.5,0,0,1011,1025.2
196,2023-10-23T03:15:00,0.3,北北西,1,北北東,9.4,95.9,0,0,0,1.5,0,0,1011,1025.2
197,2023-10-23T03:16:00,0.4,北北西,1,北北東,9.4,96,0,0,0,1.5,0,0,1011,1025.2
198,2023-10-23T03:17:00,0.4,北,1.1,北北東,9.4,96.1,0,0,0,1.5,0,0,1011.1,1025.4
199,2023-10-23T03:18:00,0.5,北,1.2,北北東,9.4,96.1,0,0,0,1.5,0,0,1011,1025.2
200,2023-10-23T03:19:00,0.6,北,1.4,北北東,9.5,96.3,0,0,0,1.5,0,0,1011,1025.2
201,2023-10-23T03:20:00,0.6,北,1.4,北北東,9.4,96.3,0,0,0,1.5,0,0,1011,1025.2
202,2023-10-23T03:21:00,0.6,北,1.4,北北東,9.5,96.4,0,0,0,1.5,0,0,1011.1,1025.3
203,2023-10-23T03:22:00,0.6,北北東,1.4,北北東,9.5,96.5,0,0,0,1.5,0,0,1011.1,1025.3
204,2023-10-23T03:23:00,0.7,北北東,1.5,北北東,9.5,96.5,0,0,0,1.5,0,0,1011.1,1025.3
205,2023-10-23T03:24:00,0.8,北北東,1.6,北,9.4,96.5,0,0,0,1.5,0,0,1011,1025.2
206,2023-10-23T03:25:00,0.9,北北東,1.6,北,9.4,96.5,0,0,0,1.5,0,0,1011,1025.2
207,2023-10-23T03:26:00,0.9,北,1.6,北,9.5,96.7,0,0,0,1.5,0,0,1011,1025.2
208,2023-10-23T03:27:00,0.9,北,1.6,北,9.4,96.8,0,0,0,1.5,0,0,1011,1025.2
209,2023-10-23T03:28:00,0.8,北,1.6,北,9.4,96.6,0,0,0,1.5,0,0,1011,1025.2
210,2023-10-23T03:29:00,0.7,北,1.6,北,9.3,96.6,0,0,0,1.5,0,0,1011,1025.3
211,2023-10-23T03:30:00,0.7,北,1.6,北,9.3,96.6,0,0,0,1.5,0,0,1011.1,1025.4
212,2023-10-23T03:31:00,0.7,北北西,1.6,北,9.4,96.7,0,0,0,1.5,0,0,1011.1,1025.4
213,2023-10-23T03:32:00,0.8,北北西,1.6,北,9.3,96.9,0,0,0,1.5,0,0,1011.1,1025.4
214,2023-10-23T03:33:00,0.7,北北西,1.6,北,9.4,96.9,0,0,0,1.5,0,0,1011.2,1025.5
215,2023-10-23T03:34:00,0.6,北北西,1.5,北北東,9.3,96.9,0,0,0,1.5,0,0,1011.1,1025.4
216,2023-10-23T03:35:00,0.6,北北西,1.5,北北東,9.3,96.9,0,0,0,1.5,0,0,1011.2,1025.5
217,2023-10-23T03:36:00,0.5,北北西,1.1,北西,9.4,97.1,0,0,0,1.5,0,0,1011.1,1025.4
218,2023-10-23T03:37:00,0.5,北北西,1.1,北西,9.4,97.2,0,0,0,1.5,0,0,1011.2,1025.5
219,2023-10-23T03:38:00,0.6,北西,1.1,北西,9.4,97.2,0,0,0,1.5,0,0,1011.2,1025.5
220,2023-10-23T03:39:00,0.6,北西,1.1,北西,9.3,97.2,0,0,0,1.5,0,0,1011.2,1025.5
221,2023-10-23T03:40:00,0.6,北西,1.1,北西,9.4,97.1,0,0,0,1.5,0,0,1011.2,1025.5
222,2023-10-23T03:41:00,0.7,北西,1.2,北西,9.5,97.3,0,0,0,1.5,0,0,1011.2,1025.4
223,2023-10-23T03:42:00,0.7,北北西,1.4,北西,9.4,97.4,0,0,0,1.5,0,0,1011.2,1025.5
224,2023-10-23T03:43:00,0.8,北北西,1.5,北西,9.5,97.2,0,0,0,1.5,0,0,1011.2,1025.4
225,2023-10-23T03:44:00,0.8,北西,1.7,西北西,9.4,97.4,0,0,0,1.5,0,0,1011.3,1025.6
226,2023-10-23T03:45:00,0.9,北西,1.7,西北西,9.5,97.2,0,0,0,1.5,0,0,1011.3,1025.5
227,2023-10-23T03:46:00,0.9,北西,1.7,西北西,9.5,97.4,0,0,0,1.5,0,0,1011.3,1025.5
228,2023-10-23T03:47:00,0.9,北西,1.7,西北西,9.5,97.3,0,0,0,1.5,0,0,1011.2,1025.4
229,2023-10-23T03:48:00,0.9,北西,1.7,西北西,9.4,97.2,0,0,0,1.5,0,0,1011.2,1025.5
230,2023-10-23T03:49:00,0.9,北西,1.7,西北西,9.4,97.3,0,0,0,1.5,0,0,1011.2,1025.5
231,2023-10-23T03:50:00,0.9,北北西,1.7,西北西,9.3,97.3,0,0,0,1.5,0,0,1011.2,1025.5
232,2023-10-23T03:51:00,0.8,北北西,1.7,西北西,9.3,97.2,0,0,0,1.5,0,0,1011.2,1025.5
233,2023-10-23T03:52:00,0.8,北北西,1.7,西北西,9.4,97.3,0,0,0,1.5,0,0,1011.3,1025.6
234,2023-10-23T03:53:00,0.8,北北西,1.7,西北西,9.3,97.3,0,0,0,1.5,0,0,1011.3,1025.6
235,2023-10-23T03:54:00,0.7,北北西,1.7,北北東,9.5,97.4,0,0,0,1.5,0,0,1011.3,1025.5
236,2023-10-23T03:55:00,0.7,北,1.7,北北東,9.2,97.4,0,0,0,1.5,0,0,1011.2,1025.5
237,2023-10-23T03:56:00,0.6,北,1.7,北北東,9.4,97.3,0,0,0,1.5,0,0,1011.3,1025.6
238,2023-10-23T03:57:00,0.6,北,1.7,北北東,9.3,97.5,0,0,0,1.5,0,0,1011.3,1025.6
239,2023-10-23T03:58:00,0.6,北,1.7,北北東,9.3,97.4,0,0,0,1.5,0,0,1011.3,1025.6
240,2023-10-23T03:59:00,0.6,北北東,1.7,北北東,9.4,97.5,0,0,0,1.5,0,0,1011.3,1025.6
241,2023-10-23T04:00:00,0.6,北北東,1.7,北北東,9.5,97.7,0,0,0,1.5,0,0,1011.3,1025.5
242,2023-10-23T04:01:00,0.6,北北東,1.7,北北東,9.4,97.7,0,0,0,1.5,0,0,1011.3,1025.6
243,2023-10-23T04:02:00,0.7,北北東,1.7,北北東,9.4,97.6,0,0,0,1.5,0,0,1011.4,1025.7
244,2023-10-23T04:03:00,0.6,北北東,1.6,北,9.4,97.6,0,0,0,1.5,0,0,1011.4,1025.7
245,2023-10-23T04:04:00,0.7,北北東,1.6,北,9.4,97.6,0,0,0,1.5,0,0,1011.4,1025.7
246,2023-10-23T04:05:00,0.7,北北東,1.6,北,9.3,97.6,0,0,0,1.5,0,0,1011.4,1025.7
247,2023-10-23T04:06:00,0.7,北北東,1.6,北,9.2,97.5,0,0,0,1.5,0,0,1011.4,1025.7
248,2023-10-23T04:07:00,0.7,北北東,1.6,北,9.2,97.5,0,0,0,1.5,0,0,1011.4,1025.7
249,2023-10-23T04:08:00,0.6,北北東,1.6,北,8.9,97.2,0,0,0,1.5,0,0,1011.4,1025.7
250,2023-10-23T04:09:00,0.6,北北東,1.5,北北東,8.9,97.2,0,0,0,1.5,0,0,1011.5,1025.8
251,2023-10-23T04:10:00,0.4,北北東,1.5,北北東,8.9,97.5,0,0,0,1.5,0,0,1011.4,1025.7
252,2023-10-23T04:11:00,0.4,北北東,1.5,北北東,9,97.5,0,0,0,1.5,0,0,1011.4,1025.7
253,2023-10-23T04:12:00,0.3,北北東,1.2,北北東,9,97.7,0,0,0,1.5,0,0,1011.4,1025.7
254,2023-10-23T04:13:00,0.2,静穏,0.8,北北東,9.1,97.7,0,0,0,1.5,0,0,1011.4,1025.7
255,2023-10-23T04:14:00,0.2,静穏,0.6,北北東,9.2,97.9,0,0,0,1.5,0,0,1011.4,1025.7
256,2023-10-23T04:15:00,0.2,静穏,0.8,北北東,9.2,97.9,0,0,0,1.5,0,0,1011.4,1025.7
257,2023-10-23T04:16:00,0.2,静穏,0.8,北北東,9.2,97.8,0,0,0,1.5,0,0,1011.3,1025.6
258,2023-10-23T04:17:00,0.3,北北東,0.9,北東,9.2,97.8,0,0,0,1.5,0,0,1011.3,1025.6
259,2023-10-23T04:18:00,0.3,北北東,1,北北東,9.2,97.8,0,0,0,1.5,0,0,1011.3,1025.6
260,2023-10-23T04:19:00,0.4,北北東,1,北北東,9.4,97.9,0,0,0,1.5,0,0,1011.3,1025.6
261,2023-10-23T04:20:00,0.5,北北東,1,北北東,9.3,97.9,0,0,0,1.5,0,0,1011.3,1025.6
262,2023-10-23T04:21:00,0.5,北北東,1,北北東,9.3,97.9,0,0,0,1.5,0,0,1011.3,1025.6
263,2023-10-23T04:22:00,0.6,北北東,1,北北東,9.4,97.9,0,0,0,1.5,0,0,1011.3,1025.6
264,2023-10-23T04:23:00,0.6,北北東,1.2,北,9.4,97.9,0,0,0,1.5,0,0,1011.3,1025.6
265,2023-10-23T04:24:00,0.7,北北東,1.2,北,9.3,97.9,0,0,0,1.5,0,0,1011.3,1025.6
266,2023-10-23T04:25:00,0.7,北北東,1.2,北,9.3,97.9,0,0,0,1.5,0,0,1011.3,1025.6
267,2023-10-23T04:26:00,0.6,北北東,1.2,北,9.2,97.8,0,0,0,1.5,0,0,1011.4,1025.7
268,2023-10-23T04:27:00,0.6,北北東,1.3,東北東,9.1,97.8,0,0,0,1.5,0,0,1011.3,1025.6
269,2023-10-23T04:28:00,0.6,北東,1.3,東北東,9.2,97.8,0,0,0,1.5,0,0,1011.3,1025.6
270,2023-10-23T04:29:00,0.6,北東,1.3,東北東,9.1,97.9,0,0,0,1.5,0,0,1011.4,1025.7
271,2023-10-23T04:30:00,0.5,北東,1.3,東北東,9.1,97.9,0,0,0,1.5,0,0,1011.4,1025.7
272,2023-10-23T04:31:00,0.5,東北東,1.3,東北東,8.9,97.8,0,0,0,1.5,0,0,1011.4,1025.7
273,2023-10-23T04:32:00,0.4,東北東,1.3,東北東,8.8,97.8,0,0,0,1.5,0,0,1011.4,1025.7
274,2023-10-23T04:33:00,0.4,東北東,1.3,東北東,8.7,97.7,0,0,0,1.5,0,0,1011.4,1025.7
275,2023-10-23T04:34:00,0.3,東北東,1.3,東北東,8.8,97.7,0,0,0,1.5,0,0,1011.4,1025.7
276,2023-10-23T04:35:00,0.2,静穏,1.3,東北東,8.8,97.8,0,0,0,1.5,0,0,1011.4,1025.7
277,2023-10-23T04:36:00,0.2,静穏,1.3,東北東,8.8,97.9,0,0,0,1.5,0,0,1011.4,1025.7
278,2023-10-23T04:37:00,0.2,静穏,0.9,南西,9.2,98,0,0,0,1.5,0,0,1011.5,1025.8
279,2023-10-23T04:38:00,0.2,静穏,1,南南西,9.3,98.2,0,0,0,1.5,0,0,1011.5,1025.8
280,2023-10-23T04:39:00,0.3,東南東,1.2,南南西,9.2,98.1,0,0,0,1.5,0,0,1011.4,1025.7
281,2023-10-23T04:40:00,0.3,南南東,1.2,南南西,8.9,98,0,0,0,1.5,0,0,1011.4,1025.7
282,2023-10-23T04:41:00,0.4,南,1.2,南南西,8.9,97.9,0,0,0,1.5,0,0,1011.4,1025.7
283,2023-10-23T04:42:00,0.4,南南西,1.2,南南西,9,97.9,0,0,0,1.5,0,0,1011.4,1025.7
284,2023-10-23T04:43:00,0.4,南南西,1.2,南南西,8.9,98,0,0,0,1.5,0,0,1011.4,1025.7
285,2023-10-23T04:44:00,0.4,南南西,1.2,南南西,8.9,97.8,0,0,0,1.5,0,0,1011.4,1025.7
286,2023-10-23T04:45:00,0.5,南南西,1.2,南南西,8.8,97.9,0,0,0,1.5,0,0,1011.4,1025.7
287,2023-10-23T04:46:00,0.5,南南西,1.2,南南西,8.8,98,0,0,0,1.5,0,0,1011.4,1025.7
288,2023-10-23T04:47:00,0.5,南南西,1.2,南南西,8.9,97.9,0,0,0,1.5,0,0,1011.4,1025.7
289,2023-10-23T04:48:00,0.5,南,1.2,南南西,9,98,0,0,0,1.5,0,0,1011.4,1025.7
290,2023-10-23T04:49:00,0.4,南,1.2,南南西,9,98.1,0,0,0,1.5,0,0,1011.4,1025.7
291,2023-10-23T04:50:00,0.3,南,1.2,南南西,9.2,98.1,0,0,0,1.5,0,0,1011.4,1025.7
292,2023-10-23T04:51:00,0.3,南,1.2,南南西,9,98.2,0,0,0,1.5,0,0,1011.4,1025.7
293,2023-10-23T04:52:00,0.2,静穏,1,南,8.9,98,0,0,0,1.5,0,0,1011.4,1025.7
294,2023-10-23T04:53:00,0.2,静穏,1,南,9.1,98,0,0,0,1.5,0,0,1011.4,1025.7
295,2023-10-23T04:54:00,0.2,静穏,1,南,9.4,98.2,0,0,0,1.5,0,0,1011.4,1025.7
296,2023-10-23T04:55:00,0.1,静穏,1,南,9.2,98.2,0,0,0,1.5,0,0,1011.4,1025.7
297,2023-10-23T04:56:00,0.1,静穏,1,南,9,98.1,0,0,0,1.5,0,0,1011.4,1025.7
298,2023-10-23T04:57:00,0,静穏,0.4,南東,9.1,98,0,0,0,1.5,0,0,1011.4,1025.7
299,2023-10-23T04:58:00,0,静穏,0.4,南東,9.1,98,0,0,0,1.5,0,0,1011.4,1025.7
300,2023-10-23T04:59:00,0,静穏,0.4,南東,9.2,98,0,0,0,1.5,0,0,1011.4,1025.7
301,2023-10-23T05:00:00,0,静穏,0.4,南東,9.2,98.1,0,0,0,1.5,0,0,1011.4,1025.7
302,2023-10-23T05:01:00,0.1,静穏,0.4,南東,9.2,98.1,0,0,0,1.5,0,0,1011.4,1025.7
303,2023-10-23T05:02:00,0.1,静穏,0.5,北東,9.2,98.2,0,0,0,1.5,0,0,1011.4,1025.7
304,2023-10-23T05:03:00,0.1,静穏,1,北西,9.2,98.1,0,0,0,1.5,0,0,1011.4,1025.7
305,2023-10-23T05:04:00,0.2,静穏,1.2,西北西,9.1,98.1,0,0,0,1.5,0,0,1011.4,1025.7
306,2023-10-23T05:05:00,0.3,北,1.2,西北西,9.2,98.1,0,0,0,1.5,0,0,1011.5,1025.8
307,2023-10-23T05:06:00,0.3,北北西,1.2,西北西,9.1,98.1,0,0,0,1.5,0,0,1011.4,1025.7
308,2023-10-23T05:07:00,0.4,北北西,1.2,西北西,9.2,98.1,0,0,0,1.5,0,0,1011.5,1025.8
309,2023-10-23T05:08:00,0.4,北西,1.2,西北西,9.2,98.2,0,0,0,1.5,0,0,1011.4,1025.7
310,2023-10-23T05:09:00,0.5,北西,1.2,西北西,9.1,98.1,0,0,0,1.5,0,0,1011.4,1025.7
311,2023-10-23T05:10:00,0.5,北西,1.2,西北西,9.1,98.1,0,0,0,1.5,0,0,1011.4,1025.7
312,2023-10-23T05:11:00,0.5,北西,1.2,西北西,9.2,98.1,0,0,0,1.5,0,0,1011.5,1025.8
313,2023-10-23T05:12:00,0.5,西北西,1.2,西北西,9.1,98.2,0,0,0,1.5,0,0,1011.5,1025.8
314,2023-10-23T05:13:00,0.5,西北西,1.2,西北西,9.2,98.1,0,0,0,1.5,0,0,1011.4,1025.7
315,2023-10-23T05:14:00,0.4,西北西,1,北西,9.2,98.2,0,0,0,1.5,0,0,1011.5,1025.8
316,2023-10-23T05:15:00,0.3,西北西,1,北西,9.2,98.2,0,0,0,1.5,0,0,1011.4,1025.7
317,2023-10-23T05:16:00,0.2,静穏,0.8,西南西,9.3,98.2,0,0,0,1.5,0,0,1011.5,1025.8
318,2023-10-23T05:17:00,0.2,静穏,0.8,西南西,9.2,98.2,0,0,0,1.5,0,0,1011.5,1025.8
319,2023-10-23T05:18:00,0.2,静穏,0.8,西南西,9.1,98.1,0,0,0,1.5,0,0,1011.5,1025.8
320,2023-10-23T05:19:00,0.1,静穏,0.6,西,9,98.1,0,0,0,1.5,0,0,1011.5,1025.8